Regional Weather Roundup
Issued by NWS

Home | Current Version | Previous Version | Text Only | Print | Product List | Glossary Off
Versions: 1 2 3 4 5 6 7 8 9 10 11 12 13 14 15 16 17 18 19 20 21 22 23 24 25 26 27 28 29 30 31 32 33 34 35 36 37 38 39 40 41 42 43 44 45 46 47 48 49 50

252
ASUS45 KPSR 302310
RWRAZ

ARIZONA HOURLY REGIONAL WEATHER ROUNDUP
NATIONAL WEATHER SERVICE PHOENIX AZ
400 PM MST TUE AUG 30 2016

NOTE: FAIR INDICATES FEW OR NO CLOUDS BELOW 12,000 FEET WITH NO
SIGNIFICANT WEATHER AND/OR OBSTRUCTIONS TO VISIBILITY.

AZZ001>003-036-310000-
NORTHWEST ARIZONA

CITY           SKY/WX    TMP DP  RH WIND       PRES   REMARKS
BULLHEAD CITY  SUNNY    108  43  11 SW9G20    29.74F HX 102
KINGMAN        MOSUNNY   96  39  13 SE10      29.99F
$$

AZZ004>008-015-016-018-310000-
NORTH CENTRAL ARIZONA

CITY           SKY/WX    TMP DP  RH WIND       PRES   REMARKS
GRAND CANYON   SUNNY     81  33  17 VRB7      30.28F
PRESCOTT       MOSUNNY   88  45  22 NE9       30.13F
FLAGSTAFF      MOSUNNY   77  39  25 VRB5      30.29F
PAYSON         MOSUNNY   86  46  25 CALM      30.17F
PAGE           SUNNY     92  33  12 N8        30.08F
$$

AZZ009>014-017-310000-
NORTHEAST ARIZONA

CITY           SKY/WX    TMP DP  RH WIND       PRES   REMARKS
WINSLOW        MOSUNNY   88  41  19 N5        30.12F
SAINT JOHNS    MOSUNNY   81  43  26 NE9       30.17S
WINDOW ROCK    MOSUNNY   76  43  30 VRB5      30.28F
SHOW LOW       PTSUNNY   75  37  25 N5        30.24F
$$

AZZ023-310000-
GREATER PHOENIX AREA

CITY           SKY/WX    TMP DP  RH WIND       PRES   REMARKS
PHOENIX        MOSUNNY  106  49  14 N9        29.77F HX 103
BUCKEYE        SUNNY    104  43  12 S6        29.78F
GLENDALE       MOSUNNY  108  46  12 CALM      29.79F HX 103
LUKE AFB       MOSUNNY  107  47  13 VRB3      29.76F HX 103
DEER VALLEY    MOSUNNY  104  50  16 VRB5      29.80F HX 101
SCOTTSDALE     MOSUNNY  103  48  15 CALM      29.82F
MESA-FALCON    MOSUNNY  N/A N/A N/A W9        29.79S
MESA-GATEWAY   PTSUNNY  100  52  19 SE12      29.81F
CHANDLER       MOSUNNY  104  48  15 NE10      29.79  HX 100
$$

AZZ027-028-310000-
SOUTHWEST MARICOPA COUNTY AND PINAL COUNTY

CITY           SKY/WX    TMP DP  RH WIND       PRES   REMARKS
CASA GRANDE    MOSUNNY  106  48  14 N5        29.83F HX 102
GILA BEND      MOSUNNY  108  42  11 NE8       29.73F HX 102
$$

AZZ503-504-507>509-310000-
SOUTHEAST ARIZONA

CITY           SKY/WX    TMP DP  RH WIND       PRES   REMARKS
TUCSON         MOSUNNY   99  48  17 SE7       29.91F
DAVIS-MONTHAN  MOSUNNY   98  48  17 E3        29.90F
RYAN FIELD     SUNNY     99  50  19 NE5       29.89F
NOGALES        PTSUNNY   88  54  31 W3        30.00F
SIERRA VISTA   MOSUNNY   86  49  27 E9        30.08F
DOUGLAS        MOSUNNY   87  52  29 E10G18    30.04F
SAFFORD        CLOUDY    89  52  28 NE29G36   29.98R
$$

AZZ020-021-025-026-031-310000-
SOUTHWEST ARIZONA

CITY           SKY/WX    TMP DP  RH WIND       PRES   REMARKS
YUMA           PTSUNNY  111  43  10 VRB5      29.68F HX 105
$$

CAZ031-033-041-043-047-048-061-310000-
SOUTHERN CALIFORNIA

CITY           SKY/WX    TMP DP  RH WIND       PRES   REMARKS
DOWNTOWN L.A.  SUNNY     82  62  50 VRB6      29.78F
L.A. AIRPORT   MOSUNNY   77  65  66 W12       29.80F
SAN DIEGO      MOSUNNY   73  64  73 S12       29.83F
BURBANK        SUNNY     91  62  37 S9        29.79S
ONTARIO        MOSUNNY   98  54  22 SW14      29.78F
RIVERSIDE      SUNNY    100  53  20 W14       29.78S
PALM SPRINGS   MOSUNNY  113  38   8 E10       29.69F HX 106
EL CENTRO NAS  MOSUNNY  112  34   7 CALM      29.68F HX 104
IMPERIAL       MOSUNNY  114  46  10 VRB3      29.65F HX 109
BLYTHE         MOSUNNY  110  40   9 VRB6      29.70F HX 104
NEEDLES        SUNNY    111  41   9 S8G20     29.76F HX 105
$$

NVZ020-UTZ003-310000-
SOUTHERN NEVADA-UTAH

CITY           SKY/WX    TMP DP  RH WIND       PRES   REMARKS
LAS VEGAS      MOSUNNY  104  30   7 VRB3      29.84F
SALT LAKE CITY PTSUNNY   97  27   8 S10       30.02F
$$

NMZ009-TXZ055-310000-
NEW MEXICO-WEST TEXAS

CITY           SKY/WX    TMP DP  RH WIND       PRES   REMARKS
ALBUQUERQUE    MOSUNNY   79  49  34 SE6       30.21F
EL PASO        CLOUDY    77  64  64 NE5       30.11F
$$


........................KEY........................
SKY/WX - SKY CONDITION/WEATHER
TMP    - TEMPERATURE IN FAHRENHEIT
DP     - DEW POINT IN FAHRENHEIT
RH     - RELATIVE HUMIDITY IN PERCENT
WIND   - DIRECTION AND SPEED IN MILES PER HOUR (MPH)
VRB    - VARIABLE WIND DIRECTION
PRES   - MEAN SEA LEVEL PRESSURE IN INCHES OF MERCURY
         F - FALLING PRESSURE   R - RISING PRESSURE
         S - STEADY PRESSURE
VSB    - VISIBILITY IN MILES
HX     - HEAT INDEX IN FAHRENHEIT
WCI    - WIND CHILL INDEX IN FAHRENHEIT
TC     - TEMPERATURE IN CELSIUS WHICH IS ALSO KNOWN AS
         TEMPERATURE IN CENTIGRADE
AFB    - AIR FORCE BASE
         LUKE AFB IS LUKE AIR FORCE BASE
         DAVIS-MONTHAN IS DAVIS-MONTHAN AIR FORCE BASE
NAS    - NAVAL AIR STATION
         EL CENTRO NAS IS EL CENTRO NAVAL AIR STATION
N/A    - NOT AVAILABLE





USA.gov is the U.S. government's official web portal to all federal, state and local government web resources and services.